User: anonymous   Login
Location: ??
(35.5653°N, 139.6194°E)
Time: 00:07:28
(UTC+00:00)
Language:

OAO 3 Rocket - Orbit

View from above orbital plane
View from above orbital plane
View from above satellite
View from above satellite

Ground track
Ground track

The orbit data is extracted from the following two-line orbital elements,

1  6155U 72065B   20028.56487435 +.00000051 +00000-0 +11866-4 0  9993
2  6155 035.0050 339.0944 0037199 069.5639 290.9049 14.71561076511852
Epoch (UTC): 28 January 2020 13:33:25
Eccentricity: 0.0037199
inclination: 35.0050°
perigee height: 630 km
apogee height: 682 km
right ascension of ascending node: 339.0944°
argument of perigee: 69.5639°
revolutions per day: 14.71561076
mean anomaly at epoch: 290.9049°
orbit number at epoch: 51185

The dashed part of the orbit path shows where the satellite is in the earth's shadow,  

DLR